Home   Weather   Qatif   Past weeks

Flag for Saudi Arabia Past Weather in Qatif, Saudi Arabia — Yesterday and Last 2 Weeks

Now
100 °F

Sunny.


Feels Like: 105 °F
Forecast: 88 / 114 °F
Wind: 7 mph from Northwest

Location: King Fahd International Airport

Current Time: Jul 25, 2017 at 10:01:02 am

Latest Report: Jul 25, 2017 at 9:00 am


Visibility: 4 mi

Pressure: 29.45 "Hg

Humidity: 33%

Dew Point: 66 °F

Location of QatifLocation

Past Weather in Qatif — Graph

°F

Qatif Temperature Yesterday

Maximum temperature yesterday: 120 °F (at 2:00 pm)
Minimum temperature yesterday: 82 °F (at 5:00 am)
Average temperature yesterday: 101 °F

High & Low Weather Summary for the Past Weeks

 TemperatureHumidityPressure
High120 °F (Jul 11, 2:00 pm)94% (Jul 17, 2:00 am)29.56 "Hg (Jul 17, 2:00 am)
Low81 °F (Jul 21, 4:00 am)4% (Jul 13, 12:00 pm)29.33 "Hg (Jul 18, 4:00 pm)
Average101 °F32%29.43 "Hg
* Reported Jul 10 9:00 am — Jul 25 9:00 am, Qatif. Weather by CustomWeather, © 2017

Note: Actual official high and low records may vary slightly from our data, if they occured in-between our weather recording intervals... More about our weather records

Advertising

Qatif Weather History for the Previous 24 Hours

Scroll right to see more
 ConditionsComfort  
Time TempWeatherWind HumidityBarometerVisibility
9:00 am
Tue, Jul 25
100 °FSunny.7 mph33%29.45 "Hg4 mi
8:00 am97 °FSunny.No wind42%29.45 "Hg4 mi
7:00 am93 °FSunny.2 mph49%29.45 "Hg4 mi
6:00 am86 °FSunny.14 mph59%29.42 "Hg4 mi
5:00 am86 °FClear.3 mph62%29.42 "Hg10 mi
4:00 am86 °FClear.No wind59%29.42 "Hg10 mi
3:00 am90 °FClear.3 mph52%29.42 "Hg10 mi
2:00 am90 °FClear.No wind43%29.39 "Hg10 mi
1:00 am90 °FClear.3 mph46%29.39 "Hg10 mi
12:00 am91 °FClear.No wind41%29.39 "Hg10 mi
11:00 pm
Mon, Jul 24
93 °FClear.3 mph36%29.39 "Hg10 mi
10:00 pm99 °FClear.7 mph31%29.39 "Hg10 mi
9:00 pm100 °FClear.8 mph31%29.39 "Hg10 mi
8:00 pm104 °FClear.8 mph26%29.36 "Hg10 mi
7:00 pm106 °FClear.12 mph18%29.36 "Hg5 mi
6:00 pm111 °FSunny.14 mph13%29.33 "Hg5 mi
5:00 pm115 °FSunny.20 mph15%29.33 "Hg10 mi
4:00 pm118 °FSunny.3 mph5%29.33 "Hg10 mi
3:00 pm118 °FSunny.3 mph5%29.36 "Hg10 mi
2:00 pm120 °FPassing clouds.6 mph5%29.36 "HgN/A
1:00 pm118 °FPassing clouds.8 mph6%29.39 "HgN/A
12:00 pm115 °FPassing clouds.7 mph7%29.42 "HgN/A
11:00 am111 °FPassing clouds.8 mph9%29.45 "HgN/A
10:00 am104 °FSunny.6 mph14%29.45 "Hg5 mi
Weather by CustomWeather, © 2017

See weather overviewHow to use our weather pages